Change the Weather History Date:

Wednesday, November 28, 2012

  Actual Average Record
Temperature  
Mean Temperature 52 °F -  
Max Temperature 57 °F 60 °F 74 °F (1958)
Min Temperature 48 °F 39 °F 28 °F (1990)
Degree Days  
Heating Degree Days 12    
Growing Degree Days 2 (Base 50)    
Moisture  
Dew Point 51 °F    
Average Humidity 92    
Maximum Humidity 97    
Minimum Humidity 80    
Precipitation  
Precipitation 0.72 in - - ()
Sea Level Pressure  
Sea Level Pressure 29.97 in    
Wind  
Wind Speed 8 mph (SE)    
Max Wind Speed 18 mph    
Max Gust Speed 26 mph    
Visibility 6 miles    
Events Rain    
Averages and records for this station are not official NWS values.
T = Trace of Precipitation, MM = Missing Value Source: NWS Daily Summary

Daily Weather History Graph

Daily Weather History Graph

Search for Another Location

Airport or City:

Trip Planner

Search our weather history database for the weather conditions in past years. The results will help you decide how hot, cold, wet, or windy it might be!

Date:

Astronomy

Nov. 28, 2012 Rise Set
Actual Time 7:05 AM PST 4:43 PM PST
Civil Twilight 6:35 AM PST 5:13 PM PST
Nautical Twilight 6:02 AM PST 5:46 PM PST
Astronomical Twilight 5:30 AM PST 6:19 PM PST
Moon 5:02 PM PST (11/28) 7:07 AM PST (11/28)
Length of Visible Light 10h 37m
Length of Day
9h 38m
Full, 100% of the Moon is Illuminated
Nov 28
Full
Dec 6
Last Quarter
Dec 13
New
Dec 19
First Quarter
Dec 28
Full

Hourly Weather History & Observations

Time (PST) Temp. Dew Point Humidity Pressure Visibility Wind Dir Wind Speed Gust Speed Precip Events Conditions
12:53 AM 48.0 °F 46.0 °F 93% 30.02 in 6.0 mi East 5.8 mph - N/A   Clear
1:53 AM 48.9 °F 46.0 °F 90% 30.01 in 7.0 mi Calm Calm - N/A   Partly Cloudy
2:53 AM 48.9 °F 46.9 °F 93% 29.96 in 8.0 mi East 6.9 mph - N/A   Scattered Clouds
3:53 AM 48.9 °F 46.9 °F 93% 29.94 in 9.0 mi Calm Calm - N/A   Mostly Cloudy
4:53 AM 48.9 °F 46.9 °F 93% 29.95 in 8.0 mi Calm Calm - N/A   Overcast
5:53 AM 48.9 °F 48.0 °F 97% 29.95 in 8.0 mi SSW 4.6 mph - 0.00 in   Overcast
6:53 AM 48.9 °F 46.9 °F 93% 29.95 in 6.0 mi ENE 8.1 mph - N/A   Overcast
7:53 AM 51.1 °F 48.0 °F 89% 29.95 in 5.0 mi East 9.2 mph - 0.02 in Rain Rain
8:18 AM 53.1 °F 50.0 °F 89% 29.93 in 2.5 mi East 16.1 mph 24.2 mph 0.06 in Rain Light Rain
8:53 AM 55.0 °F 51.1 °F 86% 29.92 in 2.0 mi East 16.1 mph - 0.09 in Rain Rain
9:46 AM 55.0 °F 50.0 °F 83% 29.89 in 3.0 mi ESE 17.3 mph 26.5 mph 0.10 in Rain Light Rain
9:53 AM 55.0 °F 50.0 °F 83% 29.90 in 4.0 mi ESE 17.3 mph - 0.11 in Rain Light Rain
10:53 AM 55.9 °F 50.0 °F 80% 29.91 in 5.0 mi SSE 15.0 mph 21.9 mph 0.06 in Rain Light Rain
11:53 AM 54.0 °F 52.0 °F 93% 29.92 in 8.0 mi SSW 10.4 mph 18.4 mph 0.10 in Rain Light Rain
12:03 PM 53.1 °F 52.0 °F 96% 29.91 in 2.0 mi WSW 6.9 mph - 0.03 in Rain Rain
12:10 PM 53.1 °F 52.0 °F 96% 29.91 in 1.2 mi Variable 6.9 mph - 0.08 in Rain Heavy Rain
12:20 PM 53.1 °F 52.0 °F 96% 29.92 in 1.0 mi SW 6.9 mph - 0.16 in Rain Heavy Rain
12:28 PM 53.1 °F 52.0 °F 96% 29.93 in 1.2 mi Variable 5.8 mph - 0.21 in Rain Heavy Rain
12:30 PM 53.1 °F 52.0 °F 96% 29.93 in 1.0 mi Variable 5.8 mph - 0.22 in Rain Heavy Rain
12:38 PM 53.1 °F 52.0 °F 96% 29.93 in 1.0 mi South 6.9 mph - 0.29 in Rain Heavy Rain
12:48 PM 53.6 °F 51.8 °F 94% 29.92 in 2.0 mi SE 10.4 mph - 0.32 in Rain Light Rain
12:53 PM 53.1 °F 52.0 °F 96% 29.92 in 3.0 mi SE 11.5 mph - 0.32 in Rain Light Rain
1:53 PM 55.0 °F 54.0 °F 96% 29.94 in 5.0 mi SE 15.0 mph - 0.02 in Rain Light Rain
2:38 PM 55.0 °F 54.0 °F 96% 29.95 in 10.0 mi SE 15.0 mph - 0.00 in   Overcast
2:53 PM 55.9 °F 54.0 °F 93% 29.96 in 10.0 mi SSE 11.5 mph - 0.00 in   Overcast
3:21 PM 57.0 °F 55.0 °F 93% 29.96 in 10.0 mi SSE 15.0 mph - N/A   Mostly Cloudy
3:53 PM 57.0 °F 54.0 °F 89% 29.97 in 10.0 mi SSE 18.4 mph - N/A   Overcast
4:53 PM 55.9 °F 55.0 °F 97% 30.00 in 8.0 mi SSE 16.1 mph 23.0 mph 0.00 in Rain Light Rain
5:53 PM 55.9 °F 53.1 °F 90% 30.03 in 10.0 mi SE 11.5 mph - 0.00 in   Partly Cloudy
6:53 PM 57.0 °F 53.1 °F 87% 30.04 in 10.0 mi SE 12.7 mph - N/A   Mostly Cloudy
7:53 PM 57.0 °F 53.1 °F 87% 30.04 in 10.0 mi SSE 11.5 mph - N/A   Mostly Cloudy
8:53 PM 55.9 °F 53.1 °F 90% 30.05 in 10.0 mi SSE 9.2 mph - N/A   Mostly Cloudy
9:00 PM 55.9 °F 53.1 °F 90% 30.04 in 10.0 mi SSE 8.1 mph - N/A   Overcast
9:24 PM 55.9 °F 53.1 °F 90% 30.04 in 10.0 mi SSE 9.2 mph - N/A   Overcast
9:53 PM 55.9 °F 53.1 °F 90% 30.06 in 10.0 mi SSE 11.5 mph - N/A   Overcast
10:30 PM 55.9 °F 53.1 °F 90% 30.05 in 10.0 mi SSE 9.2 mph - N/A   Overcast
11:48 PM 55.4 °F 53.6 °F 94% 30.06 in 10.0 mi SSE 12.7 mph - N/A   Overcast
11:53 PM 55.9 °F 54.0 °F 93% 30.06 in 10.0 mi SSE 12.7 mph - N/A   Overcast